| time (UTC) | temp F | wind direction | speed MPH | gust MPH | rain 1hr in | rain 24hr in | rain mn in | humidity % | barometer mb |
| 20260901081405 | 77 | 12 | 0.0 | 1.0 | 0.00 | 0.00 | 0.00 | 51 | 1015.7 |
| 20260901080905 | 77 | 12 | 0.0 | 0.0 | 0.00 | 0.00 | 0.00 | 52 | 1015.7 |
| 20260901074405 | 75 | 12 | 0.0 | 0.0 | 0.00 | 0.00 | 0.00 | 55 | 1015.6 |
| 20260901073404 | 74 | 11 | 0.0 | 0.0 | 0.00 | 0.00 | 0.00 | 55 | 1015.6 |
| 20260901071904 | 73 | 11 | 0.0 | 0.0 | 0.00 | 0.00 | 0.00 | 56 | 1015.6 |
| 20260901071405 | 73 | 11 | 0.0 | 0.0 | 0.00 | 0.00 | 0.00 | 56 | 1015.5 |
| 20260901070905 | 72 | 11 | 0.0 | 0.0 | 0.00 | 0.00 | 0.00 | 57 | 1015.4 |
| 20260901070404 | 72 | 6 | 2.0 | 3.0 | 0.00 | 0.00 | 0.00 | 57 | 1015.4 |
| 20260901064905 | 71 | 347 | 0.0 | 0.0 | 0.00 | 0.00 | 0.00 | 59 | 1015.2 |
| 20260901064404 | 71 | 346 | 0.0 | 0.0 | 0.00 | 0.00 | 0.00 | 59 | 1015.2 |
| 20260901063904 | 70 | 346 | 0.0 | 0.0 | 0.00 | 0.00 | 0.00 | 60 | 1015.1 |
| 20260901063405 | 70 | 346 | 0.0 | 0.0 | 0.00 | 0.00 | 0.00 | 60 | 1015.0 |
| 20260901061904 | 70 | 348 | 0.0 | 0.0 | 0.00 | 0.00 | 0.00 | 59 | 1014.8 |
| 20260901061404 | 69 | 348 | 0.0 | 0.0 | 0.00 | 0.00 | 0.00 | 59 | 1014.8 |
| 20260901060904 | 69 | 348 | 0.0 | 0.0 | 0.00 | 0.00 | 0.00 | 60 | 1014.7 |
| 20260901060404 | 69 | 348 | 0.0 | 0.0 | 0.00 | 0.00 | 0.00 | 60 | 1014.8 |
| 20260901054905 | 69 | 350 | 0.0 | 0.0 | 0.00 | 0.00 | 0.00 | 59 | 1014.7 |
| 20260901054405 | 69 | 10 | 0.0 | 0.0 | 0.00 | 0.00 | 0.00 | 59 | 1014.6 |
| 20260901053904 | 69 | 38 | 0.0 | 0.0 | 0.00 | 0.00 | 0.00 | 58 | 1014.6 |
| 20260901053404 | 69 | 38 | 0.0 | 5.0 | 0.00 | 0.00 | 0.00 | 58 | 1014.6 |
| 20260901051904 | 70 | 350 | 0.0 | 0.0 | 0.00 | 0.00 | 0.00 | 57 | 1014.4 |
| 20260901051404 | 70 | 350 | 1.0 | 6.0 | 0.00 | 0.00 | 0.00 | 57 | 1014.4 |
| 20260901050904 | 70 | 347 | 3.0 | 6.0 | 0.00 | 0.00 | 0.00 | 57 | 1014.3 |
| 20260901044904 | 70 | 4 | 2.0 | 6.0 | 0.00 | 0.00 | 0.00 | 54 | 1014.2 |
| 20260901043405 | 70 | 329 | 0.0 | 0.0 | 0.00 | 0.00 | 0.00 | 54 | 1014.2 |
| 20260901041905 | 70 | 333 | 0.0 | 0.0 | 0.00 | 0.00 | 0.00 | 53 | 1014.4 |
| 20260901040905 | 70 | 337 | 0.0 | 0.0 | 0.00 | 0.00 | 0.00 | 54 | 1014.6 |
| 20260901040405 | 70 | 337 | 0.0 | 0.0 | 0.00 | 0.00 | 0.00 | 55 | 1014.5 |
| 20260901034905 | 70 | 337 | 0.0 | 0.0 | 0.00 | 0.00 | 0.00 | 57 | 1014.7 |
| 20260901034404 | 70 | 341 | 0.0 | 0.0 | 0.00 | 0.00 | 0.00 | 59 | 1014.6 |
| 20260901033904 | 70 | 341 | 0.0 | 3.0 | 0.00 | 0.00 | 0.00 | 59 | 1014.7 |
| 20260901033404 | 70 | 342 | 1.0 | 5.0 | 0.00 | 0.00 | 0.00 | 60 | 1014.6 |
| 20260901030904 | 71 | 355 | 0.0 | 3.0 | 0.00 | 0.00 | 0.00 | 67 | 1014.6 |
| 20260901030405 | 71 | 355 | 1.0 | 3.0 | 0.00 | 0.00 | 0.00 | 68 | 1014.6 |
| 20260901024904 | 72 | 263 | 0.0 | 0.0 | 0.00 | 0.00 | 0.00 | 67 | 1014.6 |
| 20260901024404 | 72 | 263 | 0.0 | 0.0 | 0.00 | 0.00 | 0.00 | 67 | 1014.6 |
| 20260901023904 | 72 | 263 | 0.0 | 0.0 | 0.00 | 0.00 | 0.00 | 67 | 1014.6 |
| 20260901023405 | 72 | 264 | 0.0 | 0.0 | 0.00 | 0.00 | 0.00 | 67 | 1014.6 |
| 20260901021904 | 73 | 263 | 0.0 | 0.0 | 0.00 | 0.00 | 0.00 | 65 | 1014.8 |
| 20260901021404 | 73 | 263 | 0.0 | 0.0 | 0.00 | 0.00 | 0.00 | 65 | 1014.8 |
| 20260901020905 | 73 | 263 | 0.0 | 1.0 | 0.00 | 0.00 | 0.00 | 65 | 1014.8 |
| 20260901020405 | 73 | 268 | 2.0 | 6.0 | 0.00 | 0.00 | 0.00 | 64 | 1014.8 |
| 20260901014904 | 73 | 252 | 1.0 | 3.0 | 0.00 | 0.00 | 0.00 | 63 | 1014.9 |
| 20260901014404 | 73 | 250 | 2.0 | 5.0 | 0.00 | 0.00 | 0.00 | 63 | 1014.9 |
| 20260901013405 | 73 | 252 | 1.0 | 6.0 | 0.00 | 0.00 | 0.00 | 63 | 1015.0 |
| 20260901011405 | 73 | 215 | 1.0 | 6.0 | 0.00 | 0.00 | 0.00 | 65 | 1015.0 |
| 20260901010905 | 73 | 231 | 1.0 | 3.0 | 0.00 | 0.00 | 0.00 | 66 | 1015.0 |
| 20260901010405 | 73 | 222 | 0.0 | 7.0 | 0.00 | 0.00 | 0.00 | 66 | 1014.9 |
| 20260901004904 | 72 | 216 | 0.0 | 8.0 | 0.00 | 0.00 | 0.00 | 66 | 1014.9 |
| 20260901004404 | 72 | 205 | 4.0 | 6.0 | 0.00 | 0.00 | 0.00 | 66 | 1015.0 |
| 20260901003904 | 72 | 202 | 3.0 | 6.0 | 0.00 | 0.00 | 0.00 | 66 | 1015.0 |
| 20260901001405 | 71 | 175 | 2.0 | 5.0 | 0.00 | 0.00 | 0.00 | 63 | 1015.0 |
| 20260901000906 | 71 | 185 | 2.0 | 5.0 | 0.00 | 0.00 | 0.00 | 62 | 1014.9 |
| 20260901000405 | 71 | 196 | 1.0 | 6.0 | 0.00 | 0.00 | 0.00 | 61 | 1015.0 |
| 20260831234904 | 71 | 187 | 0.0 | 0.0 | 0.00 | 0.00 | 0.00 | 62 | 1014.7 |
| 20260831234404 | 71 | 162 | 0.0 | 3.0 | 0.00 | 0.00 | 0.00 | 61 | 1014.6 |
| 20260831233904 | 72 | 180 | 0.0 | 2.0 | 0.00 | 0.00 | 0.00 | 60 | 1014.6 |
| 20260831233404 | 72 | 195 | 2.0 | 6.0 | 0.00 | 0.00 | 0.00 | 59 | 1014.6 |
| 20260831231905 | 72 | 183 | 1.0 | 3.0 | 0.00 | 0.00 | 0.00 | 59 | 1014.5 |
| 20260831231405 | 72 | 180 | 1.0 | 3.0 | 0.00 | 0.00 | 0.00 | 59 | 1014.5 |
| 20260831230904 | 72 | 164 | 1.0 | 5.0 | 0.00 | 0.00 | 0.00 | 59 | 1014.5 |
| 20260831230404 | 72 | 181 | 0.0 | 3.0 | 0.00 | 0.00 | 0.00 | 60 | 1014.5 |
| 20260831224404 | 73 | 135 | 0.0 | 0.0 | 0.00 | 0.00 | 0.00 | 61 | 1014.3 |
| 20260831223904 | 74 | 126 | 0.0 | 0.0 | 0.00 | 0.00 | 0.00 | 60 | 1014.2 |
| 20260831223405 | 74 | 145 | 0.0 | 0.0 | 0.00 | 0.00 | 0.00 | 58 | 1014.2 |
| 20260831221905 | 75 | 146 | 0.0 | 0.0 | 0.00 | 0.00 | 0.00 | 56 | 1014.2 |
| 20260831221405 | 75 | 148 | 0.0 | 0.0 | 0.00 | 0.00 | 0.00 | 56 | 1014.2 |
| 20260831220404 | 76 | 150 | 0.0 | 0.0 | 0.00 | 0.00 | 0.00 | 54 | 1014.3 |
| 20260831214904 | 78 | 133 | 0.0 | 0.0 | 0.00 | 0.00 | 0.00 | 51 | 1014.4 |
| 20260831214405 | 78 | 135 | 0.0 | 0.0 | 0.00 | 0.00 | 0.00 | 49 | 1014.4 |
| 20260831213405 | 79 | 167 | 0.0 | 0.0 | 0.00 | 0.00 | 0.00 | 45 | 1014.5 |
| 20260831211904 | 82 | 126 | 0.0 | 0.0 | 0.00 | 0.00 | 0.00 | 42 | 1014.5 |
| 20260831211405 | 84 | 202 | 0.0 | 0.0 | 0.00 | 0.00 | 0.00 | 38 | 1014.4 |
| 20260831210904 | 84 | 225 | 0.0 | 3.0 | 0.00 | 0.00 | 0.00 | 34 | 1014.3 |
| 20260831210405 | 84 | 265 | 0.0 | 6.0 | 0.00 | 0.00 | 0.00 | 34 | 1014.2 |
| 20260831204904 | 85 | 261 | 2.0 | 8.0 | 0.00 | 0.00 | 0.00 | 33 | 1014.0 |
| 20260831204405 | 85 | 266 | 3.0 | 8.0 | 0.00 | 0.00 | 0.00 | 32 | 1014.0 |
| 20260831203904 | 86 | 238 | 3.0 | 9.0 | 0.00 | 0.00 | 0.00 | 32 | 1013.9 |
| 20260831203404 | 86 | 239 | 0.0 | 8.0 | 0.00 | 0.00 | 0.00 | 32 | 1013.8 |
| 20260831201905 | 86 | 259 | 5.0 | 12.0 | 0.00 | 0.00 | 0.00 | 32 | 1013.4 |
| 20260831201404 | 87 | 269 | 3.0 | 9.0 | 0.00 | 0.00 | 0.00 | 31 | 1013.4 |
| 20260831200905 | 87 | 259 | 0.0 | 6.0 | 0.00 | 0.00 | 0.00 | 31 | 1013.3 |
| 20260831200405 | 87 | 261 | 3.0 | 10.0 | 0.00 | 0.00 | 0.00 | 30 | 1013.3 |
| 20260831194404 | 89 | 253 | 2.0 | 8.0 | 0.00 | 0.00 | 0.00 | 30 | 1012.9 |
| 20260831191404 | 90 | 252 | 5.0 | 10.0 | 0.00 | 0.00 | 0.00 | 28 | 1012.4 |
| 20260831190905 | 91 | 259 | 5.0 | 10.0 | 0.00 | 0.00 | 0.00 | 28 | 1012.4 |
| 20260831190405 | 91 | 249 | 2.0 | 12.0 | 0.00 | 0.00 | 0.00 | 28 | 1012.4 |
| 20260831184905 | 92 | 256 | 3.0 | 8.0 | 0.00 | 0.00 | 0.00 | 27 | 1012.2 |
| 20260831183904 | 92 | 259 | 2.0 | 9.0 | 0.00 | 0.00 | 0.00 | 27 | 1012.1 |
| 20260831183404 | 93 | 246 | 4.0 | 13.0 | 0.00 | 0.00 | 0.00 | 27 | 1012.1 |
| 20260831181904 | 94 | 275 | 3.0 | 9.0 | 0.00 | 0.00 | 0.00 | 28 | 1012.1 |
| 20260831181404 | 94 | 260 | 2.0 | 10.0 | 0.00 | 0.00 | 0.00 | 28 | 1012.0 |
| 20260831180905 | 94 | 249 | 5.0 | 14.0 | 0.00 | 0.00 | 0.00 | 28 | 1012.0 |
| 20260831180404 | 94 | 241 | 5.0 | 12.0 | 0.00 | 0.00 | 0.00 | 28 | 1012.0 |
| 20260831174904 | 95 | 233 | 3.0 | 9.0 | 0.00 | 0.00 | 0.00 | 29 | 1012.0 |
| 20260831174404 | 95 | 237 | 5.0 | 12.0 | 0.00 | 0.00 | 0.00 | 29 | 1012.0 |
| 20260831173904 | 95 | 252 | 2.0 | 14.0 | 0.00 | 0.00 | 0.00 | 29 | 1012.1 |
| 20260831173405 | 95 | 232 | 3.0 | 13.0 | 0.00 | 0.00 | 0.00 | 29 | 1012.1 |
| 20260831171904 | 95 | 229 | 5.0 | 9.0 | 0.00 | 0.00 | 0.00 | 29 | 1012.1 |
| 20260831171405 | 95 | 206 | 9.0 | 13.0 | 0.00 | 0.00 | 0.00 | 30 | 1012.1 |
| 20260831170905 | 95 | 210 | 6.0 | 9.0 | 0.00 | 0.00 | 0.00 | 33 | 1012.1 |
| 20260831170404 | 96 | 183 | 2.0 | 9.0 | 0.00 | 0.00 | 0.00 | 33 | 1012.0 |
| 20260831164904 | 96 | 191 | 1.0 | 9.0 | 0.00 | 0.00 | 0.00 | 31 | 1012.0 |
| 20260831164405 | 96 | 192 | 5.0 | 10.0 | 0.00 | 0.00 | 0.00 | 30 | 1012.0 |
| 20260831163904 | 96 | 196 | 2.0 | 7.0 | 0.00 | 0.00 | 0.00 | 28 | 1012.1 |
| 20260831163405 | 96 | 141 | 2.0 | 9.0 | 0.00 | 0.00 | 0.00 | 28 | 1012.1 |
| 20260831161404 | 96 | 160 | 1.0 | 5.0 | 0.00 | 0.00 | 0.00 | 30 | 1012.3 |
| 20260831160905 | 96 | 182 | 2.0 | 6.0 | 0.00 | 0.00 | 0.00 | 30 | 1012.4 |
| 20260831154904 | 96 | 226 | 2.0 | 10.0 | 0.00 | 0.00 | 0.00 | 32 | 1012.4 |
| 20260831153404 | 96 | 174 | 1.0 | 10.0 | 0.00 | 0.00 | 0.00 | 32 | 1012.6 |
| 20260831151905 | 96 | 120 | 1.0 | 7.0 | 0.00 | 0.00 | 0.00 | 31 | 1012.7 |
| 20260831151404 | 96 | 177 | 3.0 | 7.0 | 0.00 | 0.00 | 0.00 | 30 | 1012.7 |
| 20260831150904 | 96 | 179 | 2.0 | 7.0 | 0.00 | 0.00 | 0.00 | 29 | 1012.7 |
| 20260831150404 | 96 | 190 | 4.0 | 8.0 | 0.00 | 0.00 | 0.00 | 29 | 1012.7 |
| 20260831144904 | 96 | 194 | 2.0 | 7.0 | 0.00 | 0.00 | 0.00 | 31 | 1012.7 |
| 20260831144404 | 96 | 154 | 1.0 | 5.0 | 0.00 | 0.00 | 0.00 | 31 | 1012.9 |
| 20260831143904 | 96 | 230 | 4.0 | 7.0 | 0.00 | 0.00 | 0.00 | 31 | 1013.0 |
| 20260831143405 | 96 | 190 | 1.0 | 9.0 | 0.00 | 0.00 | 0.00 | 29 | 1013.1 |
| 20260831141905 | 96 | 112 | 2.0 | 7.0 | 0.00 | 0.00 | 0.00 | 29 | 1013.2 |
| 20260831141405 | 96 | 172 | 1.0 | 5.0 | 0.00 | 0.00 | 0.00 | 29 | 1013.3 |
| 20260831140404 | 96 | 253 | 3.0 | 8.0 | 0.00 | 0.00 | 0.00 | 30 | 1013.4 |
| 20260831134904 | 95 | 101 | 0.0 | 3.0 | 0.00 | 0.00 | 0.00 | 30 | 1013.5 |
| 20260831134405 | 95 | 104 | 1.0 | 3.0 | 0.00 | 0.00 | 0.00 | 30 | 1013.5 |
| 20260831133404 | 95 | 229 | 0.0 | 6.0 | 0.00 | 0.00 | 0.00 | 31 | 1013.7 |
| 20260831131905 | 94 | 334 | 0.0 | 2.0 | 0.00 | 0.00 | 0.00 | 31 | 1013.8 |
| 20260831131405 | 94 | 351 | 2.0 | 7.0 | 0.00 | 0.00 | 0.00 | 31 | 1013.8 |
| 20260831130904 | 93 | 217 | 0.0 | 1.0 | 0.00 | 0.00 | 0.00 | 32 | 1013.9 |
| 20260831130404 | 93 | 261 | 1.0 | 5.0 | 0.00 | 0.00 | 0.00 | 32 | 1013.9 |
| 20260831124904 | 93 | 111 | 0.0 | 1.0 | 0.00 | 0.00 | 0.00 | 33 | 1014.0 |
| 20260831124405 | 92 | 58 | 0.0 | 2.0 | 0.00 | 0.00 | 0.00 | 33 | 1014.1 |
| 20260831123905 | 92 | 111 | 5.0 | 9.0 | 0.00 | 0.00 | 0.00 | 34 | 1014.1 |
| 20260831123404 | 92 | 62 | 0.0 | 5.0 | 0.00 | 0.00 | 0.00 | 34 | 1014.2 |
| 20260831121904 | 92 | 14 | 0.0 | 5.0 | 0.00 | 0.00 | 0.00 | 34 | 1014.4 |
| 20260831121404 | 92 | 183 | 0.0 | 2.0 | 0.00 | 0.00 | 0.00 | 35 | 1014.5 |
| 20260831120905 | 91 | 208 | 0.0 | 1.0 | 0.00 | 0.00 | 0.00 | 35 | 1014.5 |
| 20260831120404 | 91 | 218 | 0.0 | 3.0 | 0.00 | 0.00 | 0.00 | 35 | 1014.6 |
| 20260831114905 | 91 | 225 | 0.0 | 0.0 | 0.00 | 0.00 | 0.00 | 35 | 1014.8 |
| 20260831114405 | 91 | 261 | 0.0 | 1.0 | 0.00 | 0.00 | 0.00 | 36 | 1014.9 |
| 20260831113905 | 91 | 344 | 0.0 | 0.0 | 0.00 | 0.00 | 0.00 | 36 | 1015.0 |
| 20260831113405 | 91 | 49 | 0.0 | 3.0 | 0.00 | 0.00 | 0.00 | 36 | 1015.1 |
| 20260831110904 | 90 | 115 | 0.0 | 5.0 | 0.00 | 0.00 | 0.00 | 37 | 1015.3 |
| 20260831110404 | 89 | 52 | 0.0 | 2.0 | 0.00 | 0.00 | 0.00 | 38 | 1015.4 |
| 20260831104904 | 88 | 164 | 0.0 | 0.0 | 0.00 | 0.00 | 0.00 | 39 | 1015.4 |
| 20260831104404 | 88 | 49 | 0.0 | 5.0 | 0.00 | 0.00 | 0.00 | 38 | 1015.5 |
| 20260831103904 | 87 | 61 | 0.0 | 1.0 | 0.00 | 0.00 | 0.00 | 39 | 1015.6 |
| 20260831103404 | 87 | 44 | 0.0 | 7.0 | 0.00 | 0.00 | 0.00 | 39 | 1015.6 |
| 20260831101904 | 86 | 103 | 0.0 | 1.0 | 0.00 | 0.00 | 0.00 | 41 | 1015.7 |
| 20260831101404 | 86 | 113 | 0.0 | 1.0 | 0.00 | 0.00 | 0.00 | 41 | 1015.8 |
| 20260831100904 | 85 | 64 | 0.0 | 1.0 | 0.00 | 0.00 | 0.00 | 41 | 1015.8 |
| 20260831100404 | 85 | 76 | 0.0 | 2.0 | 0.00 | 0.00 | 0.00 | 41 | 1015.8 |
| 20260831094905 | 85 | 98 | 0.0 | 0.0 | 0.00 | 0.00 | 0.00 | 42 | 1015.7 |
| 20260831094404 | 84 | 48 | 0.0 | 0.0 | 0.00 | 0.00 | 0.00 | 43 | 1015.7 |
| 20260831093405 | 83 | 130 | 0.0 | 0.0 | 0.00 | 0.00 | 0.00 | 44 | 1015.7 |
| 20260831091904 | 82 | 61 | 0.0 | 0.0 | 0.00 | 0.00 | 0.00 | 45 | 1015.7 |
| 20260831091405 | 82 | 53 | 0.0 | 2.0 | 0.00 | 0.00 | 0.00 | 45 | 1015.8 |
| 20260831090904 | 82 | 71 | 0.0 | 0.0 | 0.00 | 0.00 | 0.00 | 46 | 1015.8 |
| 20260831090404 | 82 | 66 | 0.0 | 1.0 | 0.00 | 0.00 | 0.00 | 47 | 1015.8 |
| 20260831084404 | 81 | 98 | 0.0 | 0.0 | 0.00 | 0.00 | 0.00 | 49 | 1015.8 |
| 20260831083904 | 81 | 94 | 0.0 | 0.0 | 0.00 | 0.00 | 0.00 | 50 | 1015.8 |
| 20260831083404 | 81 | 81 | 0.0 | 0.0 | 0.00 | 0.00 | 0.00 | 50 | 1015.8 |
| 20260831081904 | 80 | 29 | 0.0 | 0.0 | 0.00 | 0.00 | 0.00 | 53 | 1015.8 |